DW4078 Weather Reports


Display with metric or nautical units.
time (UTC)temp
F
wind
direction
speed
MPH
gust
MPH
rain 1hr
in
rain 24hr
in
rain mn
in
humidity
%
barometer
mb
20240228235324 27 275 9.0 22.0 0.00 0.23 0.23 60 1019.2
20240228235003 27 271 10.0 23.0 0.00 0.23 0.23 61 1018.9
20240228234803 27 270 10.0 23.0 0.00 0.23 0.23 61 1018.9
20240228234524 27 275 10.0 23.0 0.00 0.23 0.23 61 1018.9
20240228234303 27 278 11.0 23.0 0.00 0.23 0.23 61 1018.7
20240228234203 27 279 11.0 23.0 0.00 0.23 0.23 61 1018.6
20240228234024 27 279 11.0 23.0 0.00 0.23 0.23 62 1018.7
20240228233303 27 273 11.0 23.0 0.00 0.23 0.23 63 1018.4
20240228233103 27 277 11.0 23.0 0.00 0.23 0.23 63 1018.3
20240228233003 27 281 11.0 23.0 0.00 0.23 0.23 64 1018.2
20240228232924 27 281 11.0 23.0 0.00 0.23 0.23 63 1018.2
20240228232803 27 278 10.0 21.0 0.00 0.23 0.23 63 1018.3
20240228232703 27 281 10.0 21.0 0.00 0.23 0.23 63 1018.2
20240228232503 27 277 9.0 21.0 0.00 0.23 0.23 64 1018.0
20240228232103 27 274 11.0 30.0 0.00 0.23 0.23 65 1017.9
20240228232003 28 272 11.0 30.0 0.00 0.23 0.23 64 1017.7
20240228231803 28 272 12.0 30.0 0.00 0.23 0.23 64 1017.8
20240228231624 27 274 13.0 30.0 0.00 0.23 0.23 63 1017.7
20240228231503 27 275 13.0 30.0 0.00 0.23 0.23 64 1017.6
20240228231303 28 280 12.0 23.0 0.00 0.23 0.23 63 1017.4
20240228231203 28 284 12.0 23.0 0.00 0.23 0.23 63 1017.5
20240228231103 28 283 11.0 23.0 0.00 0.23 0.23 63 1017.2
20240228231003 28 282 11.0 23.0 0.00 0.23 0.23 63 1017.5
20240228230903 28 284 11.0 25.0 0.00 0.23 0.23 63 1017.5
20240228230803 28 282 12.0 26.0 0.00 0.23 0.23 62 1017.3
20240228230703 28 283 12.0 26.0 0.00 0.23 0.23 62 1017.3
20240228230403 28 279 10.0 26.0 0.00 0.23 0.23 62 1017.2
20240228230203 28 272 10.0 26.0 0.00 0.23 0.23 61 1016.9
20240228230103 28 275 11.0 26.0 0.00 0.23 0.23 61 1017.0
20240228230024 28 273 11.0 26.0 0.00 0.23 0.23 61 1017.0
20240228225602 28 280 11.0 22.0 0.00 0.23 0.23 61 1016.6
20240228225501 28 280 12.0 24.0 0.00 0.23 0.23 60 1016.7
20240228225402 28 281 12.0 24.0 0.00 0.23 0.23 61 1016.6
20240228225101 28 277 12.0 24.0 0.00 0.23 0.23 60 1016.6
20240228224923 28 275 11.0 24.0 0.00 0.23 0.23 60 1016.4
20240228224601 29 264 10.0 24.0 0.00 0.23 0.23 59 1016.2
20240228224423 29 262 10.0 19.0 0.00 0.23 0.23 60 1016.1
20240228224201 29 264 9.0 21.0 0.00 0.23 0.23 61 1016.0
20240228224002 29 266 9.0 21.0 0.00 0.23 0.23 61 1015.9
20240228223901 29 266 9.0 21.0 0.00 0.23 0.23 61 1015.8
20240228223802 29 269 9.0 21.0 0.00 0.23 0.23 61 1016.0
20240228223701 29 269 9.0 21.0 0.00 0.23 0.23 61 1016.0
20240228223602 29 267 9.0 21.0 0.00 0.23 0.23 62 1016.2
20240228223223 29 265 10.0 26.0 0.00 0.23 0.23 63 1015.5
20240228223102 29 263 11.0 26.0 0.00 0.23 0.23 62 1015.5
20240228222901 29 264 12.0 26.0 0.00 0.23 0.23 61 1015.4
20240228222802 29 265 11.0 26.0 0.00 0.23 0.23 61 1015.5
20240228222502 29 274 10.0 26.0 0.00 0.23 0.23 61 1015.3
20240228222223 29 276 10.0 25.0 0.00 0.23 0.23 60 1015.2
20240228222122 29 280 9.0 25.0 0.00 0.23 0.23 60 1015.4
20240228222002 30 287 9.0 23.0 0.00 0.23 0.23 61 1015.0
20240228221901 30 290 9.0 23.0 0.00 0.23 0.23 62 1015.0
20240228221802 30 289 10.0 23.0 0.00 0.23 0.23 61 1015.0
20240228221602 30 289 10.0 23.0 0.00 0.23 0.23 62 1015.0
20240228221422 30 288 10.0 23.0 0.00 0.23 0.23 61 1014.9
20240228221002 30 277 11.0 24.0 0.00 0.23 0.23 60 1014.7
20240228220902 30 275 10.0 24.0 0.00 0.23 0.23 60 1014.7
20240228220602 30 269 11.0 24.0 0.00 0.23 0.23 61 1014.6
20240228220501 30 271 12.0 25.0 0.00 0.23 0.23 60 1014.4
20240228220301 31 272 12.0 25.0 0.00 0.23 0.23 59 1014.3
20240228220202 31 271 12.0 25.0 0.00 0.23 0.23 59 1014.3
20240228220122 31 270 12.0 25.0 0.00 0.23 0.23 58 1014.3
20240228215901 31 270 12.0 25.0 0.00 0.23 0.23 59 1014.1
20240228215305 31 276 13.0 24.0 0.00 0.23 0.23 59 1013.6
20240228215202 31 278 13.0 24.0 0.00 0.23 0.23 59 1013.7
20240228215102 31 278 14.0 24.0 0.00 0.23 0.23 58 1013.7
20240228215001 32 276 13.0 24.0 0.00 0.23 0.23 58 1013.7
20240228214622 32 277 10.0 24.0 0.00 0.23 0.23 59 1013.5
20240228214401 32 274 10.0 26.0 0.00 0.23 0.23 58 1013.3
20240228214202 32 278 9.0 26.0 0.00 0.23 0.23 58 1013.2
20240228214101 32 282 9.0 26.0 0.00 0.23 0.23 59 1013.0
20240228213902 32 281 11.0 26.0 0.00 0.23 0.23 60 1013.0
20240228213802 32 282 11.0 26.0 0.00 0.23 0.23 61 1012.9
20240228213601 32 281 12.0 26.0 0.00 0.23 0.23 61 1012.7
20240228213401 32 279 12.0 26.0 0.00 0.23 0.23 62 1012.7
20240228213102 32 277 13.0 27.0 0.00 0.23 0.23 61 1012.5
20240228213022 32 276 12.0 27.0 0.00 0.23 0.23 62 1012.5
20240228212823 32 275 11.0 27.0 0.00 0.23 0.23 63 1012.5
20240228212702 32 281 11.0 27.0 0.00 0.23 0.23 63 1012.1
20240228212623 32 285 11.0 27.0 0.00 0.23 0.23 64 1012.1
20240228212501 32 290 11.0 27.0 0.00 0.23 0.23 64 1012.0
20240228212423 32 294 12.0 27.0 0.00 0.23 0.23 64 1012.0
20240228212322 33 294 11.0 27.0 0.00 0.23 0.23 64 1012.2
20240228212102 33 292 11.0 24.0 0.00 0.23 0.23 65 1011.7
20240228211723 33 295 11.0 24.0 0.00 0.23 0.23 65 1011.7
20240228211602 33 288 10.0 24.0 0.00 0.23 0.23 65 1011.6
20240228211502 33 285 10.0 24.0 0.00 0.23 0.23 65 1011.6
20240228211402 33 283 10.0 24.0 0.00 0.23 0.23 66 1011.6
20240228211302 33 283 10.0 24.0 0.00 0.23 0.23 65 1011.4
20240228211201 33 283 10.0 17.0 0.00 0.23 0.23 66 1011.5
20240228211102 33 279 10.0 17.0 0.00 0.23 0.23 66 1011.4
20240228211023 33 278 10.0 17.0 0.00 0.23 0.23 65 1011.4
20240228210902 33 274 10.0 17.0 0.00 0.23 0.23 65 1011.1
20240228210802 33 273 10.0 21.0 0.00 0.23 0.23 65 1011.3
20240228210602 33 273 10.0 21.0 0.00 0.23 0.23 65 1011.0
20240228210302 33 280 10.0 21.0 0.00 0.23 0.23 65 1011.0
20240228210102 33 283 9.0 21.0 0.00 0.23 0.23 66 1010.7
20240228210002 33 283 9.0 21.0 0.00 0.23 0.23 66 1010.8
20240228205902 33 285 9.0 21.0 0.00 0.23 0.23 65 1010.8
20240228205802 33 284 9.0 22.0 0.00 0.23 0.23 65 1010.8
20240228205702 34 285 9.0 22.0 0.00 0.23 0.23 65 1010.9
20240228205602 34 283 10.0 22.0 0.00 0.23 0.23 65 1010.7
20240228205402 34 277 12.0 26.0 0.00 0.23 0.23 65 1010.5
20240228205306 34 273 12.0 26.0 0.00 0.23 0.23 64 1010.5
20240228205102 34 272 13.0 26.0 0.00 0.23 0.23 64 1010.5
20240228204901 34 269 14.0 26.0 0.00 0.23 0.23 64 1010.3
20240228204502 34 277 12.0 25.0 0.00 0.23 0.23 63 1010.5
20240228204302 35 280 10.0 24.0 0.00 0.23 0.23 63 1010.1
20240228204123 35 287 9.0 24.0 0.00 0.23 0.23 63 1009.8
20240228204001 35 290 9.0 18.0 0.00 0.23 0.23 63 1009.8
20240228203802 35 293 9.0 21.0 0.00 0.23 0.23 64 1009.7
20240228203602 35 291 10.0 22.0 0.00 0.23 0.23 63 1009.7
20240228203302 35 290 11.0 22.0 0.00 0.23 0.23 64 1009.6
20240228202902 35 283 11.0 22.0 0.00 0.23 0.23 63 1009.0
20240228202602 36 291 10.0 18.0 0.00 0.23 0.23 63 1009.1
20240228202401 36 288 10.0 18.0 0.00 0.23 0.23 63 1009.0
20240228202102 36 295 8.0 18.0 0.00 0.23 0.23 63 1008.8
20240228202002 36 296 8.0 18.0 0.00 0.23 0.23 64 1008.7
20240228201902 36 292 9.0 18.0 0.00 0.23 0.23 63 1008.7
20240228201602 36 284 8.0 17.0 0.00 0.23 0.23 63 1008.8
20240228201102 36 281 8.0 17.0 0.00 0.23 0.23 65 1008.4
20240228200402 37 278 11.0 26.0 0.00 0.23 0.23 64 1008.0
20240228200302 37 275 11.0 26.0 0.00 0.23 0.23 65 1008.1
20240228200101 37 274 11.0 26.0 0.00 0.23 0.23 64 1007.9
20240228195902 37 277 12.0 26.0 0.00 0.23 0.23 65 1007.9
20240228195802 37 276 12.0 26.0 0.00 0.23 0.23 64 1008.0
20240228195602 37 276 12.0 26.0 0.00 0.23 0.23 63 1008.0
20240228195502 37 275 11.0 23.0 0.00 0.23 0.23 64 1008.0
20240228195202 37 274 11.0 23.0 0.00 0.23 0.23 65 1007.8
20240228195023 37 276 12.0 23.0 0.00 0.23 0.23 65 1007.8
20240228194802 37 280 12.0 24.0 0.00 0.23 0.23 65 1007.7
20240228194602 37 282 10.0 24.0 0.00 0.23 0.23 64 1007.6
20240228194502 37 281 10.0 24.0 0.00 0.23 0.23 65 1007.6
20240228194402 37 284 10.0 24.0 0.00 0.23 0.23 65 1007.4
20240228194323 37 284 10.0 24.0 0.00 0.23 0.23 64 1007.4
20240228194102 37 283 9.0 24.0 0.00 0.23 0.23 64 1007.3
20240228194023 37 284 9.0 24.0 0.00 0.23 0.23 65 1007.3
20240228193902 38 283 8.0 22.0 0.00 0.23 0.23 66 1006.9
20240228193602 37 282 8.0 17.0 0.00 0.23 0.23 68 1006.9
20240228193523 37 284 8.0 17.0 0.00 0.23 0.23 67 1006.9
20240228193402 37 288 9.0 17.0 0.00 0.23 0.23 68 1007.0
20240228193102 37 299 9.0 18.0 0.00 0.23 0.23 69 1006.9
20240228192723 37 298 9.0 18.0 0.00 0.23 0.23 69 1006.9
20240228192402 37 296 9.0 18.0 0.00 0.23 0.23 68 1006.8
20240228192305 37 293 9.0 18.0 0.00 0.23 0.23 69 1006.8
20240228191902 38 298 7.0 18.0 0.00 0.23 0.23 69 1006.6
20240228191823 38 294 7.0 18.0 0.00 0.23 0.23 69 1006.6
20240228191723 38 291 8.0 18.0 0.00 0.23 0.23 69 1006.6
20240228191602 37 286 8.0 18.0 0.00 0.23 0.23 69 1006.6
20240228191302 38 290 7.0 17.0 0.00 0.23 0.23 70 1006.3
20240228191202 38 290 7.0 17.0 0.00 0.23 0.23 70 1006.4
20240228191102 38 289 7.0 17.0 0.00 0.23 0.23 70 1006.4
20240228191002 38 282 7.0 17.0 0.00 0.23 0.23 70 1006.3
20240228190802 38 285 7.0 16.0 0.00 0.23 0.23 70 1006.1
20240228190702 38 295 7.0 16.0 0.00 0.23 0.23 69 1006.1
20240228190402 38 287 7.0 17.0 0.00 0.23 0.23 69 1006.0
20240228190123 38 275 9.0 19.0 0.00 0.23 0.23 69 1006.0
20240228185601 39 265 10.0 19.0 0.00 0.23 0.23 65 1005.6
20240228185523 39 266 9.0 19.0 0.00 0.23 0.23 66 1005.6
20240228185323 39 270 9.0 19.0 0.00 0.23 0.23 66 1005.6
20240228185102 39 271 8.0 19.0 0.00 0.23 0.23 68 1005.6
20240228184802 39 276 8.0 16.0 0.00 0.23 0.23 70 1005.6
20240228184702 39 276 8.0 16.0 0.00 0.23 0.23 70 1005.6
20240228184302 39 276 8.0 16.0 0.00 0.23 0.23 72 1005.2
20240228184102 38 281 8.0 16.0 0.00 0.23 0.23 73 1005.2
20240228183902 38 291 8.0 16.0 0.00 0.23 0.23 74 1005.2
20240228183602 38 288 8.0 16.0 0.00 0.23 0.23 75 1005.1
20240228183402 38 287 8.0 16.0 0.00 0.23 0.23 77 1005.1
20240228183302 38 288 8.0 16.0 0.00 0.23 0.23 77 1005.1
20240228183102 38 284 8.0 17.0 0.00 0.23 0.23 76 1005.1
20240228182802 39 282 9.0 17.0 0.00 0.23 0.23 76 1005.1
20240228182402 38 281 9.0 21.0 0.00 0.23 0.23 76 1005.1
20240228182202 38 281 9.0 21.0 0.00 0.23 0.23 77 1005.0
20240228182102 38 280 9.0 21.0 0.00 0.23 0.23 78 1004.9
20240228182002 38 279 8.0 21.0 0.00 0.23 0.23 79 1004.8
20240228181902 38 274 8.0 21.0 0.00 0.23 0.23 78 1004.7
20240228181802 38 273 8.0 21.0 0.00 0.23 0.23 79 1004.7
20240228181602 38 277 7.0 14.0 0.00 0.23 0.23 82 1004.9
20240228181302 38 286 7.0 14.0 0.00 0.23 0.23 83 1004.4
20240228181223 38 284 7.0 19.0 0.00 0.23 0.23 82 1004.4
20240228181122 38 287 7.0 22.0 0.00 0.23 0.23 83 1004.5
20240228180901 38 293 9.0 22.0 0.00 0.23 0.23 83 1004.4
20240228180802 38 292 9.0 22.0 0.00 0.23 0.23 83 1004.4
20240228180602 38 294 9.0 22.0 0.00 0.23 0.23 83 1004.3
20240228180402 38 293 9.0 22.0 0.00 0.23 0.23 82 1004.2
20240228180202 39 290 8.0 17.0 0.00 0.23 0.23 81 1004.3
20240228180102 39 287 8.0 17.0 0.00 0.23 0.23 80 1004.1
20240228175902 40 275 8.0 19.0 0.00 0.23 0.23 80 1004.2
20240228175802 40 273 8.0 19.0 0.00 0.23 0.23 80 1004.0
20240228175602 40 270 8.0 21.0 0.00 0.23 0.23 79 1003.8
20240228175502 40 270 9.0 21.0 0.00 0.23 0.23 79 1004.0
20240228175306 40 270 10.0 21.0 0.00 0.23 0.23 79 1003.9
20240228175102 40 272 10.0 21.0 0.00 0.23 0.23 79 1003.9
20240228175002 40 275 10.0 21.0 0.00 0.23 0.23 79 1004.0
20240228174902 40 277 10.0 21.0 0.00 0.23 0.23 78 1003.8
20240228174802 40 276 10.0 21.0 0.00 0.23 0.23 79 1003.8
20240228174702 40 277 11.0 21.0 0.00 0.23 0.23 79 1003.5
20240228174623 40 276 11.0 21.0 0.00 0.23 0.23 78 1003.5
20240228174402 40 276 11.0 19.0 0.00 0.23 0.23 78 1003.5
20240228174302 40 276 11.0 19.0 0.00 0.23 0.23 79 1003.7
20240228174102 41 277 10.0 19.0 0.00 0.23 0.23 78 1003.5
20240228173923 41 277 9.0 19.0 0.00 0.23 0.23 77 1003.6
20240228173602 42 275 9.0 19.0 0.00 0.23 0.23 77 1003.3
20240228173402 42 277 9.0 19.0 0.00 0.23 0.23 77 1003.1
20240228173102 42 277 9.0 18.0 0.00 0.23 0.23 76 1002.9
20240228173002 42 276 9.0 18.0 0.00 0.23 0.23 76 1003.1
20240228172802 42 277 10.0 18.0 0.00 0.23 0.23 76 1003.2
20240228172602 42 277 10.0 21.0 0.00 0.23 0.23 76 1002.9
20240228172402 43 282 10.0 21.0 0.00 0.23 0.23 75 1002.9
20240228172305 43 280 10.0 21.0 0.00 0.23 0.23 76 1002.7
20240228172102 43 279 9.0 21.0 0.00 0.23 0.23 76 1002.6
20240228172002 43 276 9.0 21.0 0.00 0.23 0.23 75 1002.7
20240228171602 43 267 8.0 18.0 0.00 0.23 0.23 75 1002.5
20240228171423 44 255 7.0 17.0 0.00 0.23 0.23 75 1002.4
20240228171302 44 249 7.0 17.0 0.00 0.23 0.23 75 1002.3
20240228171123 44 252 7.0 17.0 0.00 0.23 0.23 75 1002.3
20240228171002 44 256 6.0 17.0 0.00 0.23 0.23 74 1002.2
20240228170802 44 259 6.0 16.0 0.00 0.23 0.23 74 1002.2
20240228170602 44 263 7.0 19.0 0.00 0.23 0.23 73 1002.3
20240228170123 44 263 10.0 19.0 0.00 0.23 0.23 73 1002.0
20240228170002 44 264 10.0 21.0 0.00 0.23 0.23 73 1001.6
20240228165802 44 260 10.0 21.0 0.00 0.23 0.23 73 1001.6
20240228165202 45 257 10.0 21.0 0.00 0.23 0.23 73 1001.6
20240228165102 45 255 10.0 22.0 0.00 0.23 0.23 72 1001.7
20240228165002 45 256 10.0 22.0 0.00 0.23 0.23 73 1001.7
20240228164623 45 262 10.0 22.0 0.00 0.23 0.23 73 1001.9
20240228164502 46 259 10.0 22.0 0.00 0.23 0.23 73 1001.7
20240228164402 46 262 10.0 22.0 0.00 0.23 0.23 74 1001.7
20240228163802 46 272 8.0 18.0 0.00 0.23 0.23 73 1001.6
20240228163523 47 271 8.0 18.0 0.00 0.23 0.23 74 1001.5
20240228163302 47 268 9.0 18.0 0.00 0.23 0.23 74 1001.3
20240228163102 47 270 8.0 18.0 0.00 0.23 0.23 73 1001.1
20240228162902 47 263 8.0 17.0 0.00 0.23 0.23 74 1001.0
20240228162723 47 257 8.0 17.0 0.00 0.23 0.23 74 1001.0
20240228162602 46 256 8.0 18.0 0.00 0.23 0.23 75 1000.9
20240228162502 46 256 8.0 19.0 0.00 0.23 0.23 74 1000.7
20240228162402 46 259 8.0 22.0 0.00 0.23 0.23 75 1000.6
20240228162305 46 260 8.0 22.0 0.00 0.23 0.23 75 1000.7
20240228162102 46 263 10.0 22.0 0.00 0.23 0.23 75 1000.5
20240228162023 46 262 10.0 22.0 0.00 0.23 0.23 75 1000.5
20240228161602 46 264 11.0 24.0 0.00 0.23 0.23 76 1000.5
20240228161502 46 264 12.0 24.0 0.00 0.23 0.23 76 1000.6
20240228161102 46 259 11.0 24.0 0.00 0.23 0.23 76 1000.5
20240228161002 47 261 11.0 25.0 0.00 0.23 0.23 77 1000.4
20240228160602 47 267 10.0 25.0 0.00 0.23 0.23 77 1000.3
20240228160502 47 267 10.0 25.0 0.00 0.23 0.23 78 1000.2
20240228160302 47 269 9.0 25.0 0.00 0.23 0.23 78 999.8
20240228160202 47 269 9.0 25.0 0.00 0.23 0.23 78 999.7
20240228160102 47 270 9.0 25.0 0.00 0.23 0.23 78 999.6
20240228160002 48 267 8.0 24.0 0.00 0.23 0.23 77 999.6
20240228155902 48 266 8.0 19.0 0.00 0.23 0.23 78 999.6
20240228155802 48 260 8.0 23.0 0.00 0.23 0.23 78 999.5
20240228155602 49 252 9.0 30.0 0.00 0.23 0.23 78 999.7
20240228155102 49 255 10.0 30.0 0.00 0.23 0.23 78 999.3
20240228154802 49 257 10.0 30.0 0.00 0.23 0.23 77 999.3
20240228154602 49 256 10.0 27.0 0.00 0.23 0.23 77 999.0
20240228154302 50 251 9.0 27.0 0.00 0.23 0.23 77 999.2
20240228154123 50 247 8.0 18.0 0.00 0.23 0.23 78 999.4
20240228153823 51 248 9.0 18.0 0.00 0.23 0.23 77 998.9
20240228153702 51 249 8.0 18.0 0.00 0.23 0.23 77 998.7
20240228153423 52 262 9.0 18.0 0.00 0.23 0.23 77 998.7
20240228153102 53 258 10.0 23.0 0.00 0.23 0.23 78 998.4
20240228152802 54 260 12.0 23.0 0.00 0.23 0.23 78 998.1
20240228152502 54 253 13.0 23.0 0.00 0.23 0.23 78 997.8
20240228152306 55 250 13.0 23.0 0.00 0.23 0.23 78 998.0
20240228152102 56 246 12.0 23.0 0.00 0.23 0.23 78 997.9
20240228151902 57 234 10.0 23.0 0.00 0.23 0.23 76 997.7
20240228151802 58 234 9.0 23.0 0.00 0.23 0.23 76 997.6
20240228151602 59 215 8.0 23.0 0.00 0.23 0.23 75 997.3
20240228151402 59 206 7.0 16.0 0.00 0.23 0.23 75 997.1
20240228151302 59 208 7.0 18.0 0.00 0.23 0.23 74 996.8
20240228151102 60 214 8.0 19.0 0.00 0.23 0.23 75 996.7
20240228150902 60 219 8.0 19.0 0.00 0.23 0.23 75 996.4
20240228150723 60 218 8.0 19.0 0.00 0.23 0.23 75 996.8
20240228150502 60 225 7.0 19.0 0.00 0.23 0.23 74 996.4
20240228150323 60 221 7.0 19.0 0.00 0.23 0.23 75 996.5
20240228150102 60 224 7.0 19.0 0.00 0.23 0.23 75 996.7
20240228145702 60 228 5.0 19.0 0.00 0.23 0.23 76 996.4
20240228145602 60 223 5.0 19.0 0.00 0.23 0.23 77 996.6
20240228145402 60 217 5.0 19.0 0.00 0.23 0.23 77 996.5
20240228145323 60 212 4.0 19.0 0.00 0.23 0.23 78 996.5
20240228145223 60 212 4.0 19.0 0.00 0.23 0.23 79 996.7
20240228145123 60 205 4.0 19.0 0.00 0.23 0.23 79 996.6
20240228144702 59 185 4.0 13.0 0.00 0.23 0.23 82 996.5
20240228144602 59 187 4.0 10.0 0.00 0.23 0.23 83 996.7
20240228144302 59 181 4.0 10.0 0.00 0.23 0.23 83 996.6
20240228144202 59 178 4.0 10.0 0.00 0.23 0.23 84 996.6
20240228144102 59 177 4.0 10.0 0.00 0.23 0.23 84 996.5
20240228143823 59 180 3.0 9.0 0.00 0.23 0.23 84 996.6
20240228143702 59 179 3.0 9.0 0.00 0.23 0.23 84 996.1
20240228143602 59 179 3.0 10.0 0.00 0.23 0.23 84 996.0
20240228143402 59 180 3.0 10.0 0.00 0.23 0.23 84 996.2
20240228143302 59 180 3.0 10.0 0.00 0.23 0.23 84 995.9
20240228142602 58 171 3.0 7.0 0.00 0.23 0.23 86 995.7
20240228142002 58 156 3.0 9.0 0.00 0.23 0.23 86 995.6
20240228141702 58 159 3.0 9.0 0.00 0.23 0.23 87 995.4
20240228141602 58 157 3.0 9.0 0.00 0.23 0.23 87 995.5
20240228141402 58 161 3.0 9.0 0.00 0.23 0.23 86 995.4
20240228141202 58 159 2.0 8.0 0.00 0.23 0.23 87 995.6
20240228140802 58 160 2.0 8.0 0.00 0.23 0.23 88 995.8
20240228140623 58 161 3.0 10.0 0.00 0.23 0.23 88 995.9
20240228140402 57 161 3.0 10.0 0.00 0.23 0.23 89 995.5
20240228140302 57 163 3.0 10.0 0.00 0.23 0.23 89 995.8
20240228140102 57 169 3.0 10.0 0.00 0.23 0.23 89 995.8
20240228140002 57 168 3.0 10.0 0.00 0.23 0.23 89 995.8
20240228135823 57 167 3.0 10.0 0.00 0.23 0.23 89 995.7
20240228135702 57 167 3.0 10.0 0.00 0.23 0.23 89 995.8
20240228135623 57 162 3.0 8.0 0.00 0.23 0.23 89 995.8
20240228135402 57 162 3.0 8.0 0.00 0.23 0.23 89 996.1
20240228135306 57 164 3.0 8.0 0.00 0.23 0.23 89 996.1
20240228135223 57 162 3.0 8.0 0.00 0.23 0.23 89 996.1
20240228135102 57 165 3.0 8.0 0.00 0.23 0.23 89 996.0
20240228135002 57 165 3.0 8.0 0.00 0.23 0.23 89 995.9
20240228134923 57 165 3.0 8.0 0.00 0.23 0.23 89 995.9
20240228134802 57 169 3.0 8.0 0.00 0.23 0.23 89 996.1
20240228134702 57 172 3.0 8.0 0.00 0.23 0.23 89 996.1
20240228134602 57 174 3.0 8.0 0.00 0.23 0.23 89 996.0
20240228134402 57 177 3.0 9.0 0.00 0.23 0.23 89 996.0
20240228134302 57 176 3.0 9.0 0.00 0.23 0.23 89 996.1
20240228134102 57 168 2.0 9.0 0.00 0.23 0.23 89 996.1
20240228134002 57 170 3.0 9.0 0.00 0.23 0.23 89 996.0
20240228133923 57 169 3.0 9.0 0.00 0.23 0.23 89 996.0
20240228133602 57 170 3.0 9.0 0.00 0.23 0.23 89 995.6
20240228133402 57 169 3.0 9.0 0.00 0.23 0.23 89 995.7
20240228133102 57 173 3.0 8.0 0.00 0.23 0.23 90 995.4
20240228132902 57 167 3.0 8.0 0.00 0.23 0.23 90 995.6
20240228132702 57 162 3.0 8.0 0.00 0.23 0.23 90 995.4
20240228132623 57 160 3.0 8.0 0.00 0.23 0.23 90 995.4
20240228132502 57 154 2.0 8.0 0.00 0.23 0.23 90 995.3
20240228132423 57 153 2.0 8.0 0.00 0.23 0.23 90 995.3
20240228132102 57 148 3.0 8.0 0.00 0.23 0.23 90 995.4
20240228132002 57 154 3.0 8.0 0.00 0.23 0.23 90 995.5
20240228131702 57 156 2.0 8.0 0.00 0.23 0.23 90 995.4
20240228131002 56 150 2.0 7.0 0.00 0.23 0.23 91 995.6
20240228130802 56 146 2.0 7.0 0.00 0.23 0.23 91 995.5
20240228130602 56 141 2.0 7.0 0.00 0.23 0.23 91 995.2
20240228130502 56 143 2.0 6.0 0.00 0.23 0.23 90 995.3
20240228130123 57 142 2.0 6.0 0.00 0.23 0.23 90 995.4
20240228130002 57 140 2.0 6.0 0.00 0.23 0.23 90 995.3
20240228125802 56 137 2.0 6.0 0.00 0.23 0.23 90 994.8
20240228125602 56 141 2.0 4.0 0.00 0.23 0.23 90 994.9
20240228125402 56 142 2.0 6.0 0.00 0.23 0.23 90 994.8
20240228125323 56 146 2.0 6.0 0.00 0.23 0.23 91 994.8
20240228125102 56 149 2.0 6.0 0.00 0.23 0.23 90 994.9
20240228124802 57 147 2.0 6.0 0.00 0.23 0.23 90 994.9
20240228124502 57 141 2.0 6.0 0.00 0.23 0.23 90 994.9
20240228124102 57 131 2.0 4.0 0.00 0.23 0.23 91 994.8
20240228124003 57 133 2.0 4.0 0.00 0.23 0.23 91 994.8
20240228123902 57 133 2.0 4.0 0.00 0.23 0.23 91 994.9
20240228123602 57 134 1.0 4.0 0.00 0.23 0.23 91 994.8
20240228123502 57 130 1.0 4.0 0.00 0.23 0.23 91 994.6
20240228123102 57 122 2.0 6.0 0.00 0.23 0.23 91 995.0
20240228122802 57 121 2.0 6.0 0.01 0.23 0.23 91 995.0
20240228122602 57 122 2.0 6.0 0.01 0.23 0.23 91 994.8
20240228122402 57 126 1.0 6.0 0.01 0.23 0.23 91 994.8
20240228122306 57 130 1.0 4.0 0.01 0.23 0.23 91 995.0
20240228122102 57 134 1.0 3.0 0.01 0.23 0.23 91 995.0
20240228122002 57 132 1.0 3.0 0.01 0.23 0.23 91 995.3
20240228121902 57 129 1.0 3.0 0.01 0.23 0.23 91 995.1
20240228121802 57 128 1.0 3.0 0.01 0.23 0.23 91 995.2
20240228121702 57 128 1.0 3.0 0.01 0.23 0.23 91 995.1
20240228121623 57 127 1.0 3.0 0.01 0.23 0.23 91 995.1
20240228121523 57 128 1.0 3.0 0.01 0.23 0.23 91 994.8
20240228121202 58 123 1.0 3.0 0.01 0.23 0.23 90 994.8
20240228120902 58 124 1.0 3.0 0.01 0.23 0.23 90 994.9
20240228120702 58 124 1.0 3.0 0.01 0.23 0.23 90 995.2
20240228120502 58 123 1.0 3.0 0.01 0.23 0.23 90 995.1
20240228120402 58 129 1.0 3.0 0.01 0.23 0.23 90 995.2
20240228120302 58 130 1.0 3.0 0.01 0.23 0.23 90 995.0
20240228120102 58 144 1.0 3.0 0.01 0.23 0.23 90 995.4
20240228120023 58 148 1.0 3.0 0.02 0.23 0.23 90 995.4
20240228115702 58 154 1.0 3.0 0.02 0.23 0.23 89 995.6
20240228115602 58 162 1.0 3.0 0.02 0.23 0.23 89 995.7
20240228115502 58 165 1.0 3.0 0.02 0.23 0.23 89 995.6
20240228115423 58 171 1.0 4.0 0.02 0.23 0.23 89 995.6
20240228115003 58 183 1.0 6.0 0.04 0.23 0.23 89 996.0
20240228114902 58 183 1.0 6.0 0.04 0.23 0.23 88 996.0
20240228114823 58 183 2.0 6.0 0.05 0.23 0.23 88 996.0
20240228114623 59 182 2.0 6.0 0.06 0.23 0.23 88 995.9
20240228114402 59 176 2.0 6.0 0.07 0.23 0.23 88 995.9
20240228114323 59 176 2.0 6.0 0.07 0.23 0.23 88 995.9
20240228114123 59 175 2.0 6.0 0.07 0.23 0.23 88 996.0
20240228113902 59 175 2.0 9.0 0.08 0.23 0.23 88 995.7
20240228113802 59 171 2.0 9.0 0.08 0.23 0.23 87 995.7
20240228113402 59 170 2.0 9.0 0.13 0.23 0.23 87 995.6
20240228113302 59 170 2.0 9.0 0.16 0.23 0.23 87 995.7
20240228113202 59 169 2.0 9.0 0.16 0.23 0.23 87 995.5
20240228113102 59 166 2.0 9.0 0.16 0.23 0.23 87 995.8
20240228113002 58 164 2.0 9.0 0.16 0.23 0.23 87 995.8
20240228112803 58 157 2.0 8.0 0.17 0.22 0.22 88 995.8
20240228112702 58 156 2.0 8.0 0.17 0.22 0.22 89 995.8
20240228112623 58 157 2.0 8.0 0.17 0.22 0.22 89 995.8
20240228112502 58 155 2.0 8.0 0.17 0.22 0.22 89 995.9
20240228112402 58 155 2.0 8.0 0.17 0.22 0.22 89 996.0
20240228112202 58 151 2.0 8.0 0.17 0.22 0.22 89 995.9
20240228112102 58 148 2.0 8.0 0.17 0.22 0.22 89 995.8
20240228112002 58 141 2.0 6.0 0.18 0.22 0.22 90 995.8
20240228111702 58 140 2.0 7.0 0.19 0.22 0.22 90 996.1
20240228111102 58 134 3.0 7.0 0.19 0.22 0.22 90 995.6
20240228110923 58 134 3.0 7.0 0.19 0.22 0.22 90 995.6
20240228110602 58 131 2.0 4.0 0.19 0.22 0.22 90 995.7
20240228110402 58 129 1.0 4.0 0.19 0.22 0.22 91 995.6
20240228110302 58 132 1.0 3.0 0.19 0.22 0.22 91 995.7
20240228110102 58 138 1.0 3.0 0.19 0.22 0.22 90 995.7
20240228110003 58 141 1.0 3.0 0.18 0.21 0.21 90 995.8
20240228105602 58 161 1.0 4.0 0.18 0.21 0.21 89 996.2
20240228105502 58 165 1.0 4.0 0.18 0.21 0.21 89 995.9
20240228105305 58 174 1.0 4.0 0.18 0.21 0.21 88 996.0
20240228105223 58 178 1.0 4.0 0.17 0.20 0.21 88 996.0
20240228105102 58 182 1.0 4.0 0.17 0.20 0.20 88 996.1
20240228105002 58 180 1.0 4.0 0.16 0.19 0.20 88 995.9
20240228104702 59 190 2.0 6.0 0.14 0.17 0.18 88 995.7
20240228104602 59 182 2.0 9.0 0.14 0.17 0.17 87 995.9
20240228104302 58 160 3.0 10.0 0.13 0.16 0.16 87 995.6
20240228104123 58 154 3.0 10.0 0.13 0.16 0.16 88 995.8
20240228104003 58 153 3.0 10.0 0.13 0.16 0.16 87 995.4
20240228103902 58 150 3.0 10.0 0.12 0.15 0.15 87 995.3
20240228103623 59 143 2.0 10.0 0.12 0.15 0.15 87 995.1
20240228103102 59 152 2.0 4.0 0.04 0.07 0.07 86 995.0
20240228103002 59 155 2.0 4.0 0.04 0.07 0.07 85 995.1
20240228102823 60 156 2.0 8.0 0.02 0.05 0.06 84 995.0
20240228102703 60 161 2.0 8.0 0.02 0.05 0.05 84 995.2
20240228102602 60 158 2.0 8.0 0.02 0.05 0.05 84 995.1
20240228102402 60 154 2.0 8.0 0.02 0.05 0.05 84 995.1
20240228102203 60 158 3.0 8.0 0.02 0.05 0.05 83 995.1
20240228102102 60 159 3.0 8.0 0.02 0.05 0.05 83 995.0
20240228101902 60 157 3.0 8.0 0.00 0.03 0.03 81 995.2
20240228101823 60 159 3.0 8.0 0.00 0.03 0.03 81 995.2
20240228101402 60 159 3.0 8.0 0.00 0.03 0.03 81 995.0
20240228101102 60 154 3.0 8.0 0.00 0.03 0.03 82 995.0
20240228101002 60 153 3.0 8.0 0.00 0.03 0.03 82 995.0
20240228100902 60 152 3.0 7.0 0.00 0.03 0.03 82 995.0
20240228100702 60 146 3.0 7.0 0.00 0.03 0.03 83 995.2
20240228100402 60 146 3.0 7.0 0.00 0.03 0.03 83 995.0
20240228100103 60 142 3.0 6.0 0.00 0.03 0.03 83 995.3
20240228100002 60 145 3.0 6.0 0.00 0.03 0.03 83 995.2
20240228095903 60 145 3.0 7.0 0.00 0.03 0.03 83 995.2
20240228095802 60 144 3.0 8.0 0.00 0.03 0.03 83 995.3
20240228095723 60 147 3.0 8.0 0.00 0.03 0.03 83 995.3
20240228095602 59 141 3.0 8.0 0.00 0.03 0.03 83 995.2
20240228095306 59 147 3.0 8.0 0.01 0.03 0.03 83 995.1
20240228095002 59 147 3.0 8.0 0.01 0.03 0.03 83 995.1
20240228094902 59 148 3.0 8.0 0.01 0.03 0.03 83 995.0
20240228094602 59 148 3.0 8.0 0.01 0.03 0.03 84 995.2
20240228094223 59 148 3.0 7.0 0.01 0.03 0.03 84 995.2
20240228094102 59 149 3.0 7.0 0.01 0.03 0.03 84 995.2
20240228093903 59 151 3.0 8.0 0.01 0.03 0.03 84 995.2
20240228093602 59 156 2.0 8.0 0.01 0.03 0.03 85 995.2
20240228093524 59 156 2.0 8.0 0.01 0.03 0.03 85 995.2
20240228093402 59 156 2.0 8.0 0.01 0.03 0.03 85 995.3
20240228093103 59 154 2.0 8.0 0.01 0.03 0.03 85 995.3
20240228092803 59 152 2.0 8.0 0.01 0.03 0.03 85 995.5
20240228092702 59 153 2.0 8.0 0.01 0.03 0.03 85 995.5
20240228092624 59 151 2.0 8.0 0.01 0.03 0.03 85 995.5
20240228092323 59 153 2.0 8.0 0.01 0.03 0.03 85 995.5
20240228092202 59 151 2.0 8.0 0.01 0.03 0.03 85 995.6
20240228092124 59 152 2.0 8.0 0.02 0.03 0.03 86 995.6
20240228091902 59 157 2.0 8.0 0.02 0.03 0.03 85 995.4
20240228091702 59 154 3.0 9.0 0.02 0.03 0.03 86 995.6
20240228091602 59 157 3.0 9.0 0.02 0.03 0.03 86 995.5
20240228091423 59 156 3.0 11.0 0.02 0.03 0.03 86 995.6
20240228091202 59 161 3.0 11.0 0.02 0.03 0.03 85 995.6
20240228091103 59 160 3.0 11.0 0.02 0.03 0.03 85 995.6
20240228090802 59 157 3.0 11.0 0.02 0.03 0.03 85 995.6
20240228090602 59 162 3.0 11.0 0.02 0.03 0.03 85 995.6
20240228090102 59 165 3.0 10.0 0.02 0.03 0.03 85 995.7
20240228090002 59 167 3.0 10.0 0.02 0.03 0.03 84 995.6
20240228085702 60 172 3.0 10.0 0.02 0.03 0.03 84 995.8
20240228085306 60 172 4.0 10.0 0.01 0.02 0.02 82 995.5
20240228085102 60 160 4.0 9.0 0.01 0.02 0.02 82 995.7
20240228084802 60 162 4.0 9.0 0.01 0.02 0.02 82 995.6
20240228084723 60 162 4.0 9.0 0.01 0.02 0.02 82 995.6
20240228084602 60 159 4.0 10.0 0.01 0.02 0.02 82 995.7
20240228084402 60 159 4.0 11.0 0.01 0.02 0.02 81 995.7
20240228084324 60 158 4.0 11.0 0.01 0.02 0.02 81 995.7
20240228084103 60 168 4.0 11.0 0.01 0.02 0.02 81 995.8
20240228084002 60 161 4.0 11.0 0.01 0.02 0.02 82 995.7
20240228083902 60 160 4.0 11.0 0.01 0.02 0.02 82 995.8
20240228083623 60 169 4.0 15.0 0.01 0.02 0.02 82 995.7
20240228083302 59 174 4.0 15.0 0.01 0.02 0.02 83 995.9
20240228083102 59 170 4.0 15.0 0.01 0.02 0.02 83 995.7
20240228083003 59 175 4.0 15.0 0.01 0.02 0.02 83 995.6
20240228082803 59 173 4.0 15.0 0.01 0.02 0.02 83 995.7
20240228082502 59 159 4.0 10.0 0.01 0.02 0.02 83 995.9
20240228082103 59 173 4.0 10.0 0.00 0.01 0.01 83 995.8
20240228082002 59 171 4.0 10.0 0.00 0.01 0.01 83 995.8
20240228081703 59 169 4.0 10.0 0.00 0.01 0.01 83 995.8
20240228081602 59 171 4.0 13.0 0.00 0.01 0.01 83 995.7
20240228081424 59 170 4.0 13.0 0.00 0.01 0.01 83 995.9
20240228081102 59 167 5.0 14.0 0.00 0.01 0.01 82 995.0
20240228080902 59 169 6.0 14.0 0.00 0.01 0.01 82 995.1
20240228080723 59 176 6.0 14.0 0.00 0.01 0.01 81 995.0
20240228080602 60 183 6.0 14.0 0.00 0.01 0.01 80 995.7
20240228080402 60 182 6.0 15.0 0.00 0.01 0.01 79 995.8
20240228080303 60 180 6.0 15.0 0.00 0.01 0.01 78 995.8
20240228080202 60 177 5.0 15.0 0.00 0.01 0.01 78 996.1
20240228080102 60 179 5.0 15.0 0.00 0.01 0.01 77 996.2
20240228080003 60 182 5.0 15.0 0.00 0.01 0.01 77 996.4
20240228075802 60 181 5.0 15.0 0.00 0.01 0.01 77 996.7
20240228075603 60 174 5.0 15.0 0.00 0.01 0.01 77 996.3
20240228075305 61 174 5.0 15.0 0.00 0.01 0.01 76 996.4
20240228075103 61 174 5.0 15.0 0.00 0.01 0.01 75 996.6
20240228075002 61 172 4.0 15.0 0.00 0.01 0.01 75 996.4
20240228074703 61 165 4.0 15.0 0.00 0.01 0.01 75 996.6
20240228074602 61 165 4.0 15.0 0.00 0.01 0.01 74 996.4
20240228074202 61 164 4.0 25.0 0.00 0.01 0.01 74 996.6
20240228074103 61 165 5.0 25.0 0.00 0.01 0.01 73 996.5
20240228073902 62 162 5.0 25.0 0.00 0.01 0.01 73 996.3
20240228073702 62 164 5.0 25.0 0.00 0.01 0.01 72 996.4
20240228073502 62 164 5.0 25.0 0.00 0.01 0.01 72 996.3
20240228073224 61 162 5.0 17.0 0.00 0.01 0.01 72 996.6
20240228073102 61 163 4.0 15.0 0.00 0.01 0.01 72 996.7
20240228072703 61 167 5.0 16.0 0.00 0.01 0.01 72 996.6
20240228072103 61 171 6.0 21.0 0.00 0.01 0.01 72 996.8
20240228071903 61 170 5.0 21.0 0.00 0.01 0.01 72 996.7
20240228071703 61 167 5.0 21.0 0.00 0.01 0.01 72 996.6
20240228071603 61 162 5.0 21.0 0.00 0.01 0.01 72 996.6
20240228071403 61 145 5.0 17.0 0.00 0.01 0.01 73 996.8
20240228071302 61 143 5.0 17.0 0.00 0.01 0.01 73 996.7
20240228071102 61 140 5.0 17.0 0.00 0.01 0.01 73 996.7
20240228070803 61 143 6.0 17.0 0.00 0.01 0.01 73 996.7
20240228070402 61 163 5.0 14.0 0.00 0.01 0.01 73 996.7
20240228070102 61 159 6.0 14.0 0.00 0.01 0.01 73 996.7
20240228070003 61 157 5.0 14.0 0.00 0.01 0.01 73 996.8
20240228065602 61 161 6.0 16.0 0.00 0.01 0.01 73 996.7
20240228065202 61 167 6.0 17.0 0.00 0.01 0.01 73 996.5
20240228065103 61 166 6.0 17.0 0.00 0.01 0.01 73 996.8
20240228065002 61 168 7.0 17.0 0.00 0.01 0.01 73 996.5
20240228064703 60 172 6.0 17.0 0.01 0.01 0.01 74 996.6
20240228064603 60 171 6.0 17.0 0.01 0.01 0.01 74 996.7
20240228064502 60 173 6.0 17.0 0.01 0.01 0.01 74 997.0
20240228064424 60 174 6.0 17.0 0.01 0.01 0.01 74 997.0
20240228064103 60 170 6.0 18.0 0.01 0.01 0.01 74 997.0
20240228064003 60 165 6.0 18.0 0.01 0.01 0.01 74 997.0
20240228063602 60 157 5.0 18.0 0.01 0.01 0.01 74 997.0
20240228063402 60 157 5.0 18.0 0.01 0.01 0.01 74 996.7
20240228063102 60 170 5.0 17.0 0.01 0.01 0.01 74 997.0
20240228063003 60 186 5.0 14.0 0.01 0.01 0.01 75 997.3
20240228062902 60 179 5.0 14.0 0.01 0.01 0.01 75 997.1
20240228062803 60 178 5.0 14.0 0.01 0.01 0.01 75 997.2
20240228062602 60 179 5.0 14.0 0.01 0.01 0.01 75 997.2
20240228062523 60 178 5.0 14.0 0.01 0.01 0.01 75 997.2
20240228062203 60 165 5.0 13.0 0.01 0.01 0.01 75 997.3
20240228062124 60 166 5.0 13.0 0.01 0.01 0.01 75 997.3
20240228062024 60 160 5.0 14.0 0.01 0.01 0.01 75 997.1
20240228061903 60 160 5.0 16.0 0.01 0.01 0.01 76 997.0
20240228061702 60 163 5.0 16.0 0.01 0.01 0.01 76 997.2
20240228061502 60 157 5.0 16.0 0.01 0.01 0.01 76 997.1
20240228061124 59 150 5.0 16.0 0.01 0.01 0.01 76 997.3
20240228060924 59 151 5.0 16.0 0.01 0.01 0.01 77 997.3
20240228060703 59 147 5.0 13.0 0.01 0.01 0.01 77 997.2
20240228060602 59 147 5.0 13.0 0.01 0.01 0.01 77 997.2
20240228060303 59 149 5.0 13.0 0.01 0.01 0.01 78 997.5
20240228060103 59 150 5.0 13.0 0.01 0.01 0.01 78 997.6
20240228055803 59 155 5.0 15.0 0.01 0.01 0.01 79 997.9
20240228055624 59 158 6.0 15.0 0.01 0.01 0.01 79 998.0
20240228055502 59 157 6.0 15.0 0.01 0.01 0.01 79 997.9
20240228055323 59 157 6.0 15.0 0.01 0.01 0.01 79 998.2
20240228055203 59 158 6.0 16.0 0.01 0.01 0.01 78 998.2
20240228055103 59 158 6.0 16.0 0.01 0.01 0.01 79 998.3
20240228054902 59 156 5.0 16.0 0.01 0.01 0.01 78 998.2
20240228054703 59 162 5.0 16.0 0.00 0.00 0.00 77 998.1
20240228054602 59 162 5.0 16.0 0.00 0.00 0.00 77 998.2
20240228054503 59 170 5.0 16.0 0.00 0.00 0.00 77 998.2
20240228054402 59 171 4.0 16.0 0.00 0.00 0.00 77 998.0
20240228054203 59 172 4.0 16.0 0.00 0.00 0.00 77 998.2
20240228054124 59 177 4.0 11.0 0.00 0.00 0.00 77 998.2
20240228054003 59 181 4.0 10.0 0.00 0.00 0.00 78 998.6
20240228053603 59 164 4.0 10.0 0.00 0.00 0.00 77 998.6
20240228053102 59 156 5.0 11.0 0.00 0.00 0.00 78 998.3
20240228052803 59 152 5.0 14.0 0.00 0.00 0.00 78 998.2
20240228052603 59 154 5.0 14.0 0.00 0.00 0.00 78 998.2
20240228052503 59 155 5.0 14.0 0.00 0.00 0.00 78 998.4
20240228052003 59 156 4.0 14.0 0.00 0.00 0.00 78 998.6
20240228051802 58 171 4.0 13.0 0.00 0.00 0.00 78 998.7
20240228051703 58 172 4.0 13.0 0.00 0.00 0.00 78 998.8
20240228051603 58 169 5.0 13.0 0.00 0.00 0.00 78 998.6
20240228051403 58 168 5.0 14.0 0.00 0.00 0.00 78 998.7
20240228051203 58 165 5.0 14.0 0.00 0.00 0.00 78 998.6
20240228051103 58 163 5.0 14.0 0.00 0.00 0.00 79 998.9
20240228051003 58 165 5.0 14.0 0.00 0.00 0.00 79 998.7
20240228050802 58 157 4.0 14.0 0.00 0.00 0.00 79 998.8
20240228050703 58 153 4.0 14.0 0.00 0.00 0.00 78 998.9
20240228050603 58 153 4.0 14.0 0.00 0.00 0.00 79 998.9
20240228050103 58 152 4.0 10.0 0.00 0.00 0.00 79 999.0
20240228045803 58 146 5.0 14.0 0.00 0.00 0.00 79 998.8
20240228045603 58 145 5.0 14.0 0.00 0.00 0.00 79 998.8
20240228045503 58 142 5.0 14.0 0.00 0.00 0.00 79 998.9
20240228045103 58 143 5.0 14.0 0.00 0.00 0.00 79 998.9
20240228045003 58 146 5.0 14.0 0.00 0.00 0.00 80 999.0
20240228044724 58 152 5.0 14.0 0.00 0.00 0.00 80 999.1
20240228044603 58 154 5.0 14.0 0.00 0.00 0.00 80 999.1
20240228044124 58 157 5.0 11.0 0.00 0.00 0.00 80 999.2
20240228043903 58 154 5.0 11.0 0.00 0.00 0.00 80 999.4
20240228043824 58 154 5.0 11.0 0.00 0.00 0.00 80 999.4
20240228043602 58 150 5.0 16.0 0.00 0.00 0.00 80 999.2
20240228043503 58 152 5.0 16.0 0.00 0.00 0.00 80 999.4
20240228043103 58 147 5.0 16.0 0.00 0.00 0.00 80 999.5
20240228042824 58 147 5.0 16.0 0.00 0.00 0.00 80 999.5
20240228042624 58 150 5.0 15.0 0.00 0.00 0.00 80 999.6
20240228042403 58 152 4.0 15.0 0.00 0.00 0.00 81 999.7
20240228042307 58 149 4.0 15.0 0.00 0.00 0.00 81 999.7
20240228042203 58 150 4.0 15.0 0.00 0.00 0.00 81 999.6
20240228042124 58 150 4.0 15.0 0.00 0.00 0.00 81 999.6
20240228042003 58 153 4.0 15.0 0.00 0.00 0.00 81 999.8
20240228041903 58 153 4.0 13.0 0.00 0.00 0.00 81 999.8
20240228041703 58 153 4.0 13.0 0.00 0.00 0.00 81 999.9
20240228041623 58 150 4.0 13.0 0.00 0.00 0.00 81 999.9
20240228041524 58 152 4.0 13.0 0.00 0.00 0.00 81 999.8
20240228041403 58 147 3.0 13.0 0.00 0.00 0.00 81 1000.0
20240228041303 58 152 3.0 13.0 0.00 0.00 0.00 81 1000.0
20240228041203 58 152 4.0 13.0 0.00 0.00 0.00 81 1000.1
20240228041103 58 152 4.0 13.0 0.00 0.00 0.00 81 1000.0
20240228041003 58 150 4.0 13.0 0.00 0.00 0.00 81 1000.0
20240228040902 58 146 4.0 13.0 0.00 0.00 0.00 81 1000.1
20240228040703 58 145 4.0 13.0 0.00 0.00 0.00 81 1000.0
20240228040503 58 145 4.0 13.0 0.00 0.00 0.00 82 1000.0
20240228040303 58 148 5.0 13.0 0.00 0.00 0.00 82 1000.1
20240228040103 58 147 5.0 13.0 0.00 0.00 0.00 82 1000.1
20240228040003 58 146 5.0 13.0 0.00 0.00 0.00 82 1000.1
20240228035803 58 146 4.0 11.0 0.00 0.00 0.00 82 1000.5
20240228035703 58 151 4.0 11.0 0.00 0.00 0.00 82 1000.4
20240228035603 58 154 4.0 11.0 0.00 0.00 0.00 82 1000.4
20240228035503 58 160 5.0 11.0 0.00 0.00 0.00 82 1000.4
20240228035306 58 159 4.0 11.0 0.00 0.00 0.00 83 1000.4
20240228035003 58 160 5.0 11.0 0.00 0.00 0.00 83 1000.5
20240228034802 58 165 5.0 11.0 0.00 0.00 0.00 83 1000.5
20240228034703 58 163 5.0 11.0 0.00 0.00 0.00 83 1000.4
20240228034603 58 156 5.0 11.0 0.00 0.00 0.00 83 1000.5
20240228034403 58 151 5.0 11.0 0.00 0.00 0.00 83 1000.4
20240228034303 58 152 5.0 11.0 0.00 0.00 0.00 83 1000.5
20240228034003 58 150 5.0 11.0 0.00 0.00 0.00 84 1000.5
20240228033703 58 147 5.0 11.0 0.00 0.00 0.00 84 1000.5
20240228033603 58 151 5.0 11.0 0.00 0.00 0.00 84 1000.6
20240228033503 58 151 5.0 11.0 0.00 0.00 0.00 84 1000.6
20240228033103 58 141 4.0 11.0 0.00 0.00 0.00 85 1000.8
20240228032803 58 149 4.0 14.0 0.00 0.00 0.00 85 1000.6
20240228032603 58 146 4.0 14.0 0.00 0.00 0.00 85 1000.7
20240228032103 58 153 5.0 14.0 0.00 0.00 0.00 85 1000.7
20240228031803 58 154 5.0 14.0 0.00 0.00 0.00 85 1000.8
20240228031703 58 156 5.0 13.0 0.00 0.00 0.00 85 1000.9
20240228031624 58 156 5.0 13.0 0.00 0.00 0.00 85 1000.9
20240228031403 58 154 5.0 13.0 0.00 0.00 0.00 86 1001.0
20240228031203 58 151 4.0 13.0 0.00 0.00 0.00 86 1000.9
20240228031103 58 152 4.0 13.0 0.00 0.00 0.00 86 1000.8
20240228030903 58 151 4.0 11.0 0.00 0.00 0.00 87 1001.0
20240228030603 58 146 4.0 15.0 0.00 0.00 0.00 87 1000.9
20240228030503 58 148 4.0 15.0 0.00 0.00 0.00 87 1001.0
20240228030103 58 145 5.0 15.0 0.00 0.00 0.00 87 1001.0
20240228030003 57 140 4.0 15.0 0.00 0.00 0.00 88 1001.0
20240228025903 57 143 4.0 15.0 0.00 0.00 0.00 88 1001.0
20240228025603 57 145 4.0 9.0 0.00 0.00 0.00 88 1001.2
20240228025305 57 148 4.0 8.0 0.00 0.00 0.00 89 1001.1
20240228025103 57 148 3.0 8.0 0.00 0.00 0.00 89 1001.2
20240228025024 57 149 3.0 8.0 0.00 0.00 0.00 89 1001.2
20240228024803 57 151 3.0 8.0 0.00 0.00 0.00 89 1001.1
20240228024703 57 150 3.0 7.0 0.00 0.00 0.00 89 1001.2
20240228024503 57 148 3.0 8.0 0.00 0.00 0.00 89 1001.3
20240228023924 57 148 3.0 9.0 0.00 0.00 0.00 90 1001.2
20240228023603 57 150 4.0 10.0 0.00 0.00 0.00 90 1001.4
20240228023303 57 149 3.0 10.0 0.00 0.00 0.00 90 1001.2
20240228023224 57 149 4.0 10.0 0.00 0.00 0.00 90 1001.2
20240228023103 57 151 4.0 10.0 0.00 0.00 0.00 90 1001.4
20240228022903 57 154 4.0 9.0 0.00 0.00 0.00 90 1001.1
20240228022803 57 153 3.0 9.0 0.00 0.00 0.00 90 1001.1
20240228022603 57 150 3.0 8.0 0.00 0.00 0.00 91 1001.1
20240228022403 57 149 4.0 13.0 0.00 0.00 0.00 91 1001.1
20240228022203 57 144 4.0 13.0 0.00 0.00 0.00 91 1001.2
20240228022024 57 140 3.0 13.0 0.00 0.00 0.00 90 1001.1
20240228021803 57 139 4.0 13.0 0.00 0.00 0.00 90 1001.3
20240228021703 57 140 4.0 13.0 0.00 0.00 0.00 90 1001.4
20240228021603 57 142 4.0 13.0 0.00 0.00 0.00 90 1001.2
20240228021403 57 138 4.0 10.0 0.00 0.00 0.00 90 1001.4
20240228021303 57 140 4.0 10.0 0.00 0.00 0.00 90 1001.4
20240228021103 57 142 3.0 10.0 0.00 0.00 0.00 90 1001.6
20240228020803 58 141 3.0 10.0 0.00 0.00 0.00 90 1001.4
20240228020503 58 141 3.0 9.0 0.00 0.00 0.00 90 1001.6
20240228020403 58 143 3.0 9.0 0.00 0.00 0.00 89 1001.4
20240228020203 58 147 3.0 9.0 0.00 0.00 0.00 89 1001.7
20240228020103 58 151 3.0 10.0 0.00 0.00 0.00 89 1001.5
20240228015803 58 146 4.0 11.0 0.00 0.00 0.00 88 1001.7
20240228015603 58 155 4.0 11.0 0.00 0.00 0.00 88 1001.6
20240228015503 58 151 4.0 11.0 0.00 0.00 0.00 87 1001.7
20240228015306 58 151 5.0 11.0 0.00 0.00 0.00 87 1001.8
20240228015203 58 148 4.0 11.0 0.00 0.00 0.00 86 1001.6
20240228014903 59 157 4.0 14.0 0.00 0.00 0.00 85 1001.7
20240228014303 59 160 4.0 14.0 0.00 0.00 0.00 82 1001.6
20240228014203 59 163 5.0 14.0 0.00 0.00 0.00 82 1001.7
20240228013703 60 163 5.0 13.0 0.00 0.00 0.00 79 1001.7
20240228013603 60 163 4.0 13.0 0.00 0.00 0.00 79 1001.7
20240228013524 60 159 4.0 13.0 0.00 0.00 0.00 78 1001.8
20240228013203 61 158 4.0 13.0 0.00 0.00 0.00 77 1001.7
20240228013103 61 161 4.0 13.0 0.00 0.00 0.00 76 1001.9
20240228012924 61 163 5.0 18.0 0.00 0.00 0.00 75 1001.8
20240228012803 61 162 5.0 18.0 0.00 0.00 0.00 75 1001.7
20240228012603 61 157 5.0 18.0 0.00 0.00 0.00 74 1001.7
20240228012403 62 160 5.0 18.0 0.00 0.00 0.00 74 1001.7
20240228012203 62 160 5.0 18.0 0.00 0.00 0.00 74 1001.8
20240228011803 62 153 6.0 23.0 0.00 0.00 0.00 73 1001.7
20240228011624 62 155 5.0 23.0 0.00 0.00 0.00 73 1001.8
20240228011503 62 156 6.0 23.0 0.00 0.00 0.00 73 1001.6
20240228011203 62 158 5.0 23.0 0.00 0.00 0.00 73 1001.8
20240228011103 62 158 5.0 23.0 0.00 0.00 0.00 73 1001.8
20240228011003 62 158 5.0 23.0 0.00 0.00 0.00 73 1001.7
20240228010803 62 165 4.0 10.0 0.00 0.00 0.00 72 1001.7
20240228010524 62 165 4.0 11.0 0.00 0.00 0.00 72 1001.9
20240228010424 62 164 4.0 11.0 0.00 0.00 0.00 72 1001.8
20240228010303 62 158 4.0 11.0 0.00 0.00 0.00 72 1001.8
20240228010103 62 158 4.0 11.0 0.00 0.00 0.00 72 1001.7
20240228005903 62 158 4.0 11.0 0.00 0.00 0.00 72 1001.7
20240228005803 63 158 4.0 11.0 0.00 0.00 0.00 72 1001.9
20240228005703 63 161 4.0 11.0 0.00 0.00 0.00 72 1001.8
20240228005603 63 156 4.0 11.0 0.00 0.00 0.00 72 1001.6
20240228005403 63 145 4.0 10.0 0.00 0.00 0.00 72 1001.9
20240228005306 63 146 4.0 10.0 0.00 0.00 0.00 72 1001.8
20240228005224 63 153 4.0 10.0 0.00 0.00 0.00 72 1001.8
20240228005103 63 163 4.0 10.0 0.00 0.00 0.00 72 1001.8
20240228004803 63 164 4.0 10.0 0.00 0.00 0.00 72 1001.6
20240228004724 63 161 4.0 11.0 0.00 0.00 0.00 72 1001.6
20240228004624 63 167 4.0 11.0 0.00 0.00 0.00 72 1001.7
20240228004403 63 175 5.0 11.0 0.00 0.00 0.00 72 1001.8
20240228004203 63 170 4.0 11.0 0.00 0.00 0.00 71 1002.0
20240228004103 63 163 4.0 11.0 0.00 0.00 0.00 71 1002.0
20240228003903 63 161 4.0 11.0 0.00 0.00 0.00 71 1002.2
20240228003803 63 160 4.0 11.0 0.00 0.00 0.00 71 1002.0
20240228003603 63 159 4.0 10.0 0.00 0.00 0.00 71 1002.0
20240228003403 63 161 4.0 11.0 0.00 0.00 0.00 70 1001.9
20240228003303 63 162 4.0 11.0 0.00 0.00 0.00 70 1001.9
20240228003203 63 162 5.0 11.0 0.00 0.00 0.00 70 1002.0
20240228003103 63 161 4.0 11.0 0.00 0.00 0.00 70 1001.9
20240228003003 63 160 4.0 11.0 0.00 0.00 0.00 70 1001.7
20240228002603 63 160 4.0 11.0 0.00 0.00 0.00 70 1001.9
20240228002203 63 163 3.0 10.0 0.00 0.00 0.00 70 1001.9
20240228002124 63 165 3.0 10.0 0.00 0.00 0.00 70 1001.9
20240228001803 63 167 3.0 10.0 0.00 0.00 0.00 70 1001.9
20240228001603 63 166 3.0 9.0 0.00 0.00 0.00 70 1002.0
20240228001124 63 165 2.0 7.0 0.00 0.00 0.00 70 1001.7
20240228001003 63 161 2.0 7.0 0.00 0.00 0.00 70 1001.7
20240228000903 62 165 2.0 6.0 0.00 0.00 0.00 71 1001.8
20240228000803 63 162 2.0 6.0 0.00 0.00 0.00 71 1001.7
20240228000703 63 160 2.0 6.0 0.00 0.00 0.00 71 1001.8
20240228000603 63 158 2.0 7.0 0.00 0.00 0.00 70 1001.5
20240228000503 63 158 2.0 7.0 0.00 0.00 0.00 70 1001.8
20240228000403 63 157 2.0 7.0 0.00 0.00 0.00 70 1001.7
20240228000304 63 154 3.0 7.0 0.00 0.00 0.00 70 1001.7
20240228000124 63 151 3.0 7.0 0.00 0.00 0.00 70 1001.8
20240227235703 63 149 2.0 7.0 0.00 0.00 0.00 70 1001.5
20240227235624 63 151 2.0 6.0 0.00 0.00 0.00 70 1001.5